FENGYUN 1C DEB

Satellite information

Favourite Embed

Satellite Type and Status

DEBRISIN ORBIT

Key statistics

Satellite FENGYUN 1C DEB at a glance.

Uptime

9496

Days in orbit

Revolutions

≈ 14.4

Per day

Orbit

SSO

Sun Synchronous Orbit

Inclination

98.8

Latest

Satellite identification and parameters

Extended collection of information and parameters for FENGYUN 1C DEB.

Object identification

Identified? True

Debris? True

Object name: FENGYUN 1C DEB

International designator: 1999-025DQR

Object number (NORAD): 35233

Object ID (CCSDS): 35233

Country: PEOPLES REPUBLIC OF CHINA (PRC)

Current information (Y/N): Y

RCS size: SMALL

Orbital parameters

Period: 100.079 minutes

Inclination: 98.7662 deg

SMA: 7140.383 km

Apoapsis: 794.139 km

Periapsis: 730.358 km

RAAN: 219.0184 deg

Eccentricy: 0.0044662

Argument of periapsis: 198.4505 deg

Mean anomaly: 219.5755 deg

Mean motion: 14.38866415 rev/day

Mean motion (dot): 0.00007691 rev/day2

B* drag term: 0.002482 1/REarth

Two-line elements (TLE)

Creation date: May 6, 2025, 3:54 a.m.

Reference frame: TEME

Reference center: EARTH

Epoch: May 5, 2025, 5:47 a.m. UTC

TLE line 0: 0 FENGYUN 1C DEB

TLE line 1: 1 35233U 99025DQR 25125.24152161 .00007691 00000-0 24820-2 0 9999

TLE line 2: 2 35233 98.7662 219.0184 0044662 198.4505 219.5755 14.38866415879885

Live tracking on map

Real-time ground track for satellite FENGYUN 1C DEB.

In-orbit conjunctions

A list of the most updated potential collisions computed for object FENGYUN 1C DEB.

Target Orbit TCA Probability of collision Miss distance Type
SL-8 R/B LEO 2025-04-04 09:26:26 0.0001127108 247.0 (m) ROCKET BODY
CZ-6A DEB LEO 2025-02-25 05:08:24 0.0001254748 864.0 (m) DEBRIS
DMSP 5D-2 F13 DEB SSO 2024-11-10 23:54:52 0.0001971166 535.0 (m) DEBRIS
COSMOS 1937 LEO 2024-09-26 09:58:46 0.0001081663 259.0 (m) PAYLOAD

Associated space launch

Chinese polar orbiting meteorological satellite

FENGYUN 1C DEB was lifted into orbit during the mission ‘Long March 4B | Feng Yun 1C’, on board a Long March 4B space rocket.

The launch took place on May 10, 1999, 1:33 a.m. from Launch Complex 7.

For more information about the launch, click the button.

Launch to space Long March 4B | Feng Yun 1C
Long March 4B | Feng Yun 1C

Agency: N/A

Status: Launch Successful

Launch date: May 10, 1999, 1:33 a.m. UTC

Rocket: Long March 4B

Launch pad: Launch Complex 7

Location: Taiyuan Satellite Launch Center, People's Republic of China

...

Latest news about this satellite

There are no fresh news available about this satellite. Check back as we update our databases every day.


Newsletter sign-up

Weekly statistics, charts and insights to help you stay on top of the space industry.